Hourly Weather Ljubljana

Today, 7 May, Friday

Time Temperature Precipitation Wind Pressure Humidity
00:00 +3°C° 0.1 mm 0 mps 661 mmHg 98%
01:00 +3°C° 0.1 mm 0 mps 661 mmHg 98%
02:00 +3°C° 0.2 mm 0 mps 660 mmHg 98%
03:00 +4°C° 0.2 mm 0 mps 660 mmHg 98%
04:00 +4°C° 0.2 mm 0 mps 660 mmHg 99%
05:00 +4°C° 0.7 mm 0 mps 660 mmHg 98%
06:00 +4°C° 0.7 mm 0 mps 660 mmHg 98%
07:00 +5°C° 0.7 mm 1 mps 660 mmHg 98%
08:00 +5°C° 1.4 mm 1 mps 661 mmHg 98%
09:00 +5°C° 1.4 mm 1 mps 661 mmHg 98%
10:00 +5°C° 1.4 mm 1 mps 661 mmHg 98%
11:00 +5°C° 1.7 mm 1 mps 661 mmHg 98%
12:00 +5°C° 1.7 mm 1 mps 662 mmHg 98%
13:00 +4°C° 1.7 mm 1 mps 662 mmHg 98%
14:00 +5°C° 1.2 mm 1 mps 662 mmHg 97%
15:00 +5°C° 1.2 mm 1 mps 663 mmHg 96%
16:00 +4°C° 1.2 mm 0 mps 663 mmHg 95%
17:00 +4°C° 0.3 mm 0 mps 664 mmHg 96%
18:00 +5°C° 0.3 mm 1 mps 665 mmHg 97%
19:00 +4°C° 0.3 mm 1 mps 665 mmHg 98%
20:00 +4°C° 0 mm 1 mps 666 mmHg 97%
21:00 +3°C° 0 mm 1 mps 666 mmHg 97%
22:00 +3°C° 0 mm 1 mps 667 mmHg 97%
23:00 +2°C° 0.1 mm 1 mps 667 mmHg 97%

Tomorrow, 8 May, Saturday

Time Temperature Precipitation Wind Pressure Humidity
00:00 +2°C° 0.1 mm 1 mps 667 mmHg 97%
01:00 +2°C° 0.1 mm 1 mps 668 mmHg 97%
02:00 +2°C° 0 mm 1 mps 668 mmHg 97%
03:00 +1°C° 0 mm 1 mps 668 mmHg 97%
04:00 +1°C° 0 mm 1 mps 668 mmHg 97%
05:00 +1°C° 0 mm 0 mps 669 mmHg 95%
06:00 +1°C° 0 mm 0 mps 669 mmHg 93%
07:00 +1°C° 0 mm 0 mps 670 mmHg 92%
08:00 +4°C° 0 mm 1 mps 670 mmHg 86%
09:00 +5°C° 0 mm 1 mps 670 mmHg 80%
10:00 +6°C° 0 mm 1 mps 670 mmHg 74%
11:00 +7°C° 0 mm 1 mps 670 mmHg 69%
12:00 +8°C° 0 mm 1 mps 670 mmHg 64%
13:00 +9°C° 0 mm 1 mps 670 mmHg 60%
14:00 +10°C° 0 mm 1 mps 670 mmHg 59%
15:00 +10°C° 0 mm 1 mps 670 mmHg 59%
16:00 +10°C° 0 mm 1 mps 670 mmHg 59%
17:00 +9°C° 0 mm 1 mps 669 mmHg 66%
18:00 +7°C° 0 mm 1 mps 669 mmHg 74%
19:00 +6°C° 0 mm 1 mps 669 mmHg 81%
20:00 +5°C° 0 mm 1 mps 669 mmHg 82%
21:00 +4°C° 0 mm 1 mps 669 mmHg 84%
22:00 +3°C° 0 mm 1 mps 669 mmHg 85%
23:00 +3°C° 0 mm 1 mps 669 mmHg 86%

Day after tomorrow, 9 May, Sunday

Time Temperature Precipitation Wind Pressure Humidity
00:00 +3°C° 0 mm 1 mps 669 mmHg 86%
01:00 +2°C° 0 mm 1 mps 669 mmHg 87%
02:00 +2°C° 0 mm 1 mps 669 mmHg 87%
03:00 +2°C° 0 mm 1 mps 669 mmHg 88%
04:00 +2°C° 0 mm 1 mps 669 mmHg 88%
05:00 +2°C° 0 mm 0 mps 669 mmHg 82%
06:00 +4°C° 0 mm 0 mps 669 mmHg 77%
07:00 +6°C° 0 mm 0 mps 669 mmHg 72%
08:00 +8°C° 0 mm 0 mps 669 mmHg 66%
09:00 +10°C° 0 mm 0 mps 670 mmHg 60%
10:00 +13°C° 0 mm 1 mps 670 mmHg 54%
11:00 +14°C° 0 mm 1 mps 670 mmHg 51%
12:00 +15°C° 0 mm 1 mps 670 mmHg 49%
13:00 +16°C° 0 mm 2 mps 670 mmHg 46%
14:00 +16°C° 0 mm 2 mps 669 mmHg 47%
15:00 +16°C° 0 mm 2 mps 669 mmHg 48%
16:00 +16°C° 0 mm 3 mps 669 mmHg 49%
17:00 +14°C° 0 mm 2 mps 668 mmHg 61%
18:00 +12°C° 0 mm 2 mps 668 mmHg 72%
19:00 +9°C° 0 mm 2 mps 667 mmHg 83%
20:00 +8°C° 0 mm 2 mps 667 mmHg 86%
21:00 +6°C° 0 mm 2 mps 667 mmHg 89%
22:00 +5°C° 0 mm 2 mps 667 mmHg 92%
23:00 +5°C° 0 mm 2 mps 667 mmHg 93%

10 May, Monday

Time Temperature Precipitation Wind Pressure Humidity
00:00 +5°C° 0 mm 2 mps 667 mmHg 93%
01:00 +4°C° 0 mm 2 mps 667 mmHg 94%
02:00 +4°C° 0 mm 2 mps 666 mmHg 94%
03:00 +4°C° 0 mm 2 mps 666 mmHg 93%
04:00 +4°C° 0 mm 2 mps 666 mmHg 93%
05:00 +5°C° 0 mm 2 mps 666 mmHg 87%
06:00 +7°C° 0 mm 2 mps 667 mmHg 81%
07:00 +8°C° 0 mm 2 mps 667 mmHg 75%
08:00 +10°C° 0 mm 2 mps 667 mmHg 70%
09:00 +13°C° 0 mm 2 mps 668 mmHg 64%
10:00 +14°C° 0 mm 3 mps 668 mmHg 59%
11:00 +16°C° 0 mm 3 mps 668 mmHg 56%
12:00 +17°C° 0 mm 3 mps 668 mmHg 54%
13:00 +18°C° 0 mm 3 mps 668 mmHg 52%
14:00 +18°C° 0 mm 3 mps 668 mmHg 53%
15:00 +18°C° 0 mm 3 mps 668 mmHg 54%
16:00 +18°C° 0 mm 3 mps 668 mmHg 55%
17:00 +16°C° 0 mm 3 mps 668 mmHg 66%
18:00 +14°C° 0 mm 2 mps 667 mmHg 76%
19:00 +12°C° 0 mm 2 mps 667 mmHg 87%
20:00 +10°C° 0 mm 2 mps 667 mmHg 90%
21:00 +9°C° 0 mm 2 mps 667 mmHg 92%
22:00 +8°C° 0 mm 2 mps 667 mmHg 95%
23:00 +9°C° 0 mm 1 mps 666 mmHg 94%

11 May, Tuesday

Time Temperature Precipitation Wind Pressure Humidity
00:00 +9°C° 0 mm 1 mps 666 mmHg 94%
01:00 +9°C° 0 mm 1 mps 666 mmHg 93%
02:00 +8°C° 0 mm 1 mps 666 mmHg 94%
03:00 +8°C° 0 mm 1 mps 666 mmHg 94%
04:00 +8°C° 0 mm 1 mps 666 mmHg 94%
05:00 +9°C° 0 mm 1 mps 666 mmHg 88%
06:00 +11°C° 0 mm 1 mps 666 mmHg 82%
07:00 +12°C° 0 mm 1 mps 667 mmHg 76%
08:00 +14°C° 0 mm 1 mps 667 mmHg 68%
09:00 +16°C° 0 mm 2 mps 667 mmHg 60%
10:00 +18°C° 0 mm 2 mps 668 mmHg 52%
11:00 +17°C° 0 mm 3 mps 668 mmHg 55%
12:00 +17°C° 0 mm 3 mps 667 mmHg 57%
13:00 +17°C° 0 mm 4 mps 667 mmHg 60%
14:00 +16°C° 0.1 mm 3 mps 667 mmHg 65%
15:00 +14°C° 0.1 mm 3 mps 666 mmHg 70%
16:00 +14°C° 0.1 mm 2 mps 666 mmHg 76%
17:00 +13°C° 0.1 mm 2 mps 665 mmHg 79%
18:00 +12°C° 0.1 mm 2 mps 665 mmHg 83%
19:00 +11°C° 0.1 mm 1 mps 665 mmHg 87%
20:00 +10°C° 0.3 mm 1 mps 664 mmHg 89%
21:00 +10°C° 0.3 mm 1 mps 664 mmHg 91%
22:00 +9°C° 0.3 mm 1 mps 664 mmHg 93%
23:00 +9°C° 1.4 mm 1 mps 664 mmHg 95%

12 May, Wednesday

Time Temperature Precipitation Wind Pressure Humidity
00:00 +9°C° 1.4 mm 1 mps 663 mmHg 96%
01:00 +9°C° 1.4 mm 1 mps 663 mmHg 98%
02:00 +9°C° 1.6 mm 1 mps 662 mmHg 98%
03:00 +9°C° 1.6 mm 1 mps 661 mmHg 98%
04:00 +9°C° 1.6 mm 1 mps 661 mmHg 98%
05:00 +9°C° 2 mm 1 mps 660 mmHg 98%
06:00 +9°C° 2 mm 1 mps 660 mmHg 98%
07:00 +9°C° 2 mm 1 mps 659 mmHg 98%
08:00 +9°C° 4.1 mm 1 mps 659 mmHg 98%
09:00 +8°C° 4.1 mm 2 mps 658 mmHg 97%
10:00 +8°C° 4.1 mm 2 mps 658 mmHg 97%
11:00 +8°C° 1.6 mm 2 mps 658 mmHg 96%
12:00 +9°C° 1.6 mm 1 mps 658 mmHg 95%
13:00 +8°C° 1.6 mm 1 mps 658 mmHg 94%
14:00 +8°C° 0.7 mm 1 mps 658 mmHg 92%
15:00 +7°C° 0.7 mm 2 mps 658 mmHg 91%
16:00 +7°C° 0.7 mm 2 mps 658 mmHg 90%
17:00 +6°C° 1.8 mm 2 mps 658 mmHg 92%
18:00 +5°C° 1.8 mm 2 mps 659 mmHg 94%
19:00 +5°C° 1.8 mm 1 mps 659 mmHg 97%
20:00 +5°C° 0.2 mm 1 mps 659 mmHg 96%
21:00 +5°C° 0.2 mm 1 mps 659 mmHg 96%
22:00 +5°C° 0.2 mm 1 mps 659 mmHg 96%
23:00 +5°C° 0 mm 1 mps 660 mmHg 95%
Show more